Lapse_Rate
5.1 4.9 4.7 4.9 4.9 4.9 4.5 4.5 4.0 5.4 4.6 5.4 4.9 4.9 5.0 4.8 4.7 4.9 5.2 5.1 5.6 6.4 6.4 6.2 6.8 6.9 7.3 7.5 7.8 8.0 7.8 7.5 7.5 7.3 7.1 6.7 6.2 6.3 6.1 5.9 6.0 6.0 5.9 5.4
5.0 5.0 5.0 5.3 5.4 5.2 5.0 5.0 4.8 5.1 5.4 5.5 5.4 5.0 5.0 5.1 5.0 5.2 5.2 5.0 5.2 6.0 6.4 6.5 6.5 6.5 6.9 7.2 7.4 7.7 7.5 7.6 7.0 6.7 6.4 6.3 5.9 6.4 6.2 6.2 6.4 5.7 5.8 5.9
5.1 5.2 5.2 5.5 6.1 5.7 5.8 5.6 5.4 5.3 5.9 5.7 5.7 5.6 5.1 5.4 5.0 5.0 4.9 4.9 5.2 5.9 5.5 5.6 5.9 6.3 6.1 6.3 6.8 7.0 7.1 7.2 6.7 6.1 6.2 6.4 6.2 6.1 6.2 5.9 5.2 5.9 5.6 5.5
5.2 5.3 4.5 6.1 6.1 5.8 5.7 5.7 5.7 5.8 5.7 5.7 5.6 5.5 5.4 5.4 5.2 4.9 4.8 4.8 5.0 5.0 5.1 5.5 5.5 5.7 5.7 5.9 5.6 6.2 6.5 6.2 6.0 6.1 5.8 6.0 6.4 6.2 6.1 5.8 6.0 5.7 5.1 5.2
4.7 4.8 5.9 6.6 6.3 5.9 5.6 6.5 6.3 5.9 5.9 5.8 5.9 5.7 5.4 5.6 5.4 5.2 5.2 5.0 5.1 5.1 5.3 5.5 5.3 5.4 5.3 5.7 5.8 5.7 5.6 5.9 6.2 6.4 6.4 6.3 6.0 5.6 5.3 5.3 5.4 5.1 4.8 5.0
5.1 5.2 5.0 6.4 6.2 5.9 5.7 6.4 6.1 6.0 6.1 6.1 5.9 6.0 5.8 5.5 5.7 5.7 5.5 5.1 4.9 5.1 5.2 5.4 5.4 5.3 5.3 5.2 5.1 5.3 5.7 5.8 6.1 6.1 6.1 5.4 5.4 5.7 5.6 5.4 5.3 5.1 5.0 4.9
5.3 5.3 5.8 6.4 6.0 5.9 6.0 6.1 5.9 6.3 6.2 6.3 6.0 5.9 5.8 5.8 5.6 5.7 5.9 5.8 5.7 5.6 5.8 5.7 5.6 6.0 5.8 5.6 5.3 5.4 5.4 5.1 5.6 5.6 5.5 5.3 5.1 5.2 4.8 4.9 5.0 4.8 4.7 4.8
5.3 5.2 5.4 6.1 6.0 5.8 5.9 5.9 6.2 6.4 6.3 6.4 6.1 6.0 5.8 5.7 5.8 5.9 5.7 5.9 5.7 5.7 5.6 5.6 5.4 5.2 5.3 5.1 5.2 5.0 5.0 5.2 5.2 5.2 5.1 5.0 4.8 4.8 4.9 5.1 5.1 5.1 5.1 5.0
5.9 6.1 6.0 5.8 5.8 5.9 5.9 6.0 6.2 6.4 6.5 6.4 6.3 6.2 6.0 5.7 5.6 5.9 5.9 5.8 5.7 6.0 5.7 5.7 5.5 5.2 5.1 5.1 5.1 5.0 5.0 5.0 5.0 4.9 5.0 5.3 5.4 5.2 5.1 5.1 5.0 5.1 5.2 5.1
5.8 6.2 6.0 5.9 5.9 5.9 6.0 6.1 6.2 6.4 6.6 6.6 6.6 6.3 5.8 5.8 6.0 5.9 6.1 6.0 6.0 5.7 5.8 5.8 5.5 5.4 5.5 5.0 5.0 5.1 5.2 5.1 5.2 5.3 5.3 5.3 5.1 5.0 5.0 4.9 4.8 4.7 4.6 4.5
5.7 6.0 6.0 5.8 5.8 5.8 5.9 5.9 6.2 6.5 6.7 6.7 6.7 6.7 6.3 6.0 5.8 6.0 6.0 6.0 6.1 6.0 5.8 5.7 5.6 5.3 5.3 5.3 5.4 5.2 5.3 5.4 5.2 5.1 5.1 4.9 4.8 4.7 4.7 4.5 4.4 4.5 4.8 5.0
5.5 5.5 5.2 5.6 5.8 5.9 5.9 5.9 6.2 6.6 6.8 7.0 7.0 6.9 6.5 6.2 6.1 5.9 6.0 6.0 6.0 5.9 5.8 5.6 5.1 5.1 5.3 5.2 5.2 5.3 5.3 5.1 5.0 4.9 4.9 4.9 4.8 4.6 4.7 4.8 5.0 5.1 5.3 5.3
5.3 5.1 5.7 6.1 6.1 6.1 5.9 6.0 6.1 6.6 6.9 7.0 7.0 6.7 6.7 6.4 6.2 5.9 5.9 6.0 5.9 5.6 5.4 5.1 5.1 5.3 5.3 5.2 5.2 5.2 5.1 4.9 4.8 4.8 4.7 4.7 4.8 5.0 5.2 5.4 5.5 5.4 5.2 5.0
5.5 5.2 5.7 5.8 5.9 5.9 6.0 6.1 6.2 6.6 6.8 7.0 6.8 6.6 6.6 6.4 6.4 6.2 6.0 5.8 5.9 5.5 5.6 5.4 5.4 5.4 5.4 5.3 5.1 5.0 5.0 5.0 5.0 5.2 5.2 5.2 5.3 5.3 5.4 5.4 5.2 5.0 4.8 4.8
5.6 5.3 5.3 5.3 5.8 5.8 6.0 6.1 6.2 6.4 6.6 6.4 6.5 6.5 6.5 6.2 6.2 6.1 5.8 5.8 5.7 5.4 5.5 5.5 5.5 5.4 5.3 5.3 5.3 5.3 5.3 5.4 5.3 5.3 5.2 5.2 5.3 5.3 5.2 5.2 5.1 5.0 4.8 4.5
5.5 5.5 5.3 5.4 5.8 6.1 6.3 6.2 6.2 6.3 6.3 6.0 6.1 6.3 6.4 6.2 5.9 5.7 5.8 5.5 5.5 5.5 5.4 5.4 5.4 5.4 5.4 5.3 5.3 5.4 5.4 5.3 5.2 5.2 5.3 5.3 5.3 5.3 5.3 5.3 5.2 4.9 4.5 4.1
5.8 5.6 5.6 6.1 6.2 6.2 6.3 6.3 6.3 6.3 6.4 6.1 5.9 6.0 6.0 6.0 6.0 5.9 5.8 5.7 5.6 5.5 5.5 5.4 5.4 5.4 5.3 5.3 5.4 5.4 5.3 5.3 5.3 5.3 5.4 5.4 5.4 5.5 5.4 5.3 5.0 4.5 4.0 3.2
6.2 6.1 6.1 6.1 6.0 6.1 6.1 6.1 6.1 6.2 6.3 6.2 5.8 5.8 5.8 5.7 5.8 5.7 5.7 5.7 5.6 5.6 5.4 5.4 5.4 5.4 5.5 5.5 5.4 5.4 5.4 5.3 5.3 5.4 5.4 5.5 5.5 5.5 5.4 5.2 4.6 3.9 3.3 2.8
6.1 6.1 6.2 6.1 6.1 6.1 6.0 5.9 6.1 6.1 6.1 6.1 5.8 5.5 5.6 5.6 5.6 5.5 5.5 5.5 5.5 5.5 5.5 5.5 5.4 5.4 5.4 5.5 5.5 5.4 5.4 5.4 5.4 5.5 5.5 5.5 5.5 5.6 5.3 4.9 4.2 3.6 3.0 2.6
5.9 6.3 6.2 6.0 6.0 6.0 6.0 5.8 6.0 6.1 6.1 6.2 6.0 5.7 5.6 5.5 5.5 5.4 5.4 5.4 5.5 5.5 5.4 5.4 5.4 5.5 5.5 5.5 5.4 5.4 5.4 5.5 5.5 5.5 5.5 5.5 5.6 5.5 5.1 4.6 4.0 3.5 3.0 3.1
6.1 5.9 5.9 5.9 5.8 5.9 5.7 5.8 5.8 6.0 6.0 6.0 5.9 5.6 5.4 5.3 5.4 5.3 5.3 5.4 5.5 5.5 5.4 5.4 5.4 5.5 5.5 5.5 5.5 5.5 5.5 5.5 5.5 5.5 5.6 5.7 5.7 5.4 4.9 4.4 4.0 3.6 3.3 3.9
6.2 6.1 6.1 6.2 6.0 5.8 5.6 5.8 6.0 6.1 5.8 5.9 5.8 5.7 5.5 5.2 5.5 5.3 5.4 5.5 5.5 5.5 5.4 5.4 5.5 5.5 5.5 5.5 5.5 5.5 5.5 5.5 5.6 5.7 5.8 5.8 5.6 5.2 4.7 4.3 4.1 3.8 4.2 4.5
6.9 6.6 6.4 6.5 6.2 5.9 5.9 6.0 6.0 5.9 5.8 5.7 5.7 5.6 5.2 5.3 5.2 5.2 5.4 5.5 5.5 5.5 5.4 5.5 5.4 5.5 5.5 5.5 5.5 5.6 5.5 5.5 5.7 5.8 6.0 5.8 5.3 4.9 4.6 4.3 4.1 4.2 5.0 5.1
6.8 7.0 7.0 7.0 6.9 6.5 6.3 6.2 6.1 6.1 6.1 5.9 5.9 5.8 5.6 5.5 5.5 5.2 5.2 5.4 5.5 5.5 5.4 5.4 5.4 5.4 5.5 5.5 5.6 5.5 5.5 5.6 5.9 6.0 5.9 5.6 5.1 4.8 4.5 4.4 4.3 4.8 5.5 5.6
7.0 7.0 7.0 7.0 7.1 7.1 6.8 6.6 6.7 6.6 6.6 6.4 6.2 6.0 5.8 5.7 5.8 5.6 5.3 5.5 5.5 5.5 5.5 5.5 5.5 5.5 5.5 5.5 5.6 5.5 5.5 5.7 5.9 5.9 5.6 5.2 5.1 4.9 4.6 4.5 4.7 5.5 5.8 5.9
6.8 6.8 6.9 6.9 7.0 7.2 7.3 7.1 6.8 6.8 6.7 6.6 6.4 6.1 6.2 6.3 5.9 6.0 5.6 5.5 5.6 5.5 5.5 5.5 5.6 5.6 5.5 5.6 5.5 5.5 5.6 5.8 5.9 5.6 5.3 4.9 5.0 4.8 4.6 4.7 5.2 5.9 6.1 6.1
6.6 6.8 6.8 6.7 6.8 6.9 7.0 7.1 7.1 6.9 6.8 6.6 6.4 6.1 6.0 6.0 5.8 5.7 5.9 5.4 5.5 5.6 5.6 5.5 5.5 5.5 5.4 5.5 5.5 5.5 5.6 5.7 5.6 5.3 4.9 4.8 4.9 4.7 4.8 5.0 5.7 6.1 6.1 6.1
Wind_Speed
5 7 5 6 8 8 9 14 8 18 17 25 23 20 18 10 15 14 7 7 6 7 4 2 4 5 6 5 5 5 6 4 9 10 11 14 13 12 13 12 11 13 12 10
5 6 8 7 11 12 14 16 17 20 24 23 19 13 9 9 13 14 13 11 9 6 2 4 4 4 5 6 6 7 9 11 11 14 14 15 15 15 16 15 14 13 11 8
4 4 5 5 9 11 5 7 7 8 12 12 14 13 4 9 11 13 13 10 10 5 6 5 5 6 8 9 8 9 13 12 12 14 16 15 16 16 14 13 12 10 8 8
4 5 1 3 1 5 8 7 9 9 13 12 8 2 4 5 8 9 10 11 9 7 7 7 9 10 10 11 11 10 12 10 12 15 16 16 16 14 12 9 10 8 6 7
2 3 6 4 3 5 6 7 5 7 8 7 6 3 1 6 6 7 7 7 7 7 8 9 8 9 12 12 10 11 11 10 10 14 14 14 12 13 9 9 7 5 6 7
2 1 3 4 0 3 4 4 4 5 8 6 4 3 2 4 5 7 7 5 6 7 7 8 6 7 10 10 10 9 9 9 10 12 13 13 11 11 6 7 7 5 4 5
4 3 7 7 3 4 2 4 4 3 6 3 3 1 2 3 5 6 5 6 7 8 7 7 7 9 11 10 9 9 10 11 11 11 12 10 8 8 7 7 7 5 5 3
4 4 7 5 3 3 4 3 3 4 3 3 4 5 4 4 4 4 5 6 8 9 8 8 7 9 10 10 8 9 10 10 9 9 8 7 10 6 5 7 6 5 5 4
7 5 5 3 5 4 1 3 3 3 4 7 6 4 5 5 5 5 6 7 7 7 8 7 8 7 11 7 7 9 10 10 9 9 8 8 7 6 5 5 4 4 3 2
1 3 6 9 3 2 2 3 5 4 5 7 7 7 5 6 4 4 5 6 6 6 7 8 7 8 8 7 7 9 11 10 7 8 7 6 4 4 4 4 3 3 3 2
5 8 6 3 3 3 2 1 3 1 4 6 9 7 6 7 7 6 6 6 6 7 7 8 7 7 7 7 7 9 9 7 6 5 5 5 4 4 4 2 3 3 2 2
4 5 4 4 2 2 3 2 2 4 4 5 7 8 6 6 6 6 7 7 6 6 7 6 7 7 6 6 8 9 7 5 4 4 4 3 4 3 6 5 5 4 5 4
5 4 4 6 4 2 3 3 4 5 5 7 5 7 6 5 5 10 7 8 8 6 6 6 7 7 6 6 7 7 6 5 4 5 4 3 3 3 3 3 5 6 6 6
9 6 5 5 5 6 4 4 6 5 4 5 6 6 6 7 8 7 8 8 7 7 7 6 7 6 5 6 7 7 6 10 4 4 4 3 3 3 2 2 1 3 5 6
11 7 5 3 5 4 4 5 6 6 5 6 5 7 8 9 8 8 9 8 8 8 7 6 6 5 5 6 7 6 5 4 4 4 3 4 3 2 2 2 1 1 2 4
12 7 3 3 6 6 5 6 6 6 7 6 7 7 7 6 8 8 8 8 10 8 6 6 6 4 5 6 6 5 4 8 5 3 3 3 2 2 2 1 1 1 2 3
7 6 2 3 5 7 8 6 6 7 7 8 7 9 10 9 8 7 6 5 6 6 6 6 6 5 5 5 6 4 3 3 7 3 3 2 2 1 0 0 1 2 2 3
8 10 11 9 6 6 6 8 7 9 10 9 9 9 10 11 10 8 7 7 8 6 5 5 6 6 5 5 5 4 3 3 3 3 2 2 1 1 1 1 2 2 2 3
8 8 8 7 7 6 7 9 9 9 11 11 10 10 8 6 8 8 8 8 8 7 5 5 11 8 5 6 6 4 4 4 3 2 1 2 2 1 1 2 3 3 3 3
10 9 9 4 3 5 7 7 9 9 9 11 10 9 9 8 8 9 7 7 6 4 7 7 6 5 6 7 7 3 4 3 3 2 0 1 1 1 2 4 4 3 3 3
9 8 6 5 6 6 5 7 9 9 9 10 11 10 10 9 9 9 8 6 5 9 8 12 5 4 3 5 5 4 3 3 2 2 1 1 2 3 3 3 3 3 3 3
9 9 7 5 3 3 4 5 6 7 7 7 6 9 10 9 8 5 2 5 5 16 6 4 4 8 5 8 4 4 3 3 2 1 0 1 2 3 3 3 3 3 3 4
8 7 6 5 2 2 4 5 6 8 9 8 9 10 9 7 7 8 5 5 6 11 5 4 9 12 11 4 3 3 3 2 1 0 1 1 2 3 2 3 3 3 3 4
7 6 6 5 1 3 4 3 5 6 7 8 9 9 10 8 3 2 5 14 15 13 6 6 9 12 8 3 3 3 2 2 1 1 2 4 2 2 2 3 3 4 4 7
6 5 4 4 0 1 3 3 4 5 7 6 6 7 7 5 4 5 7 7 16 10 5 13 13 11 4 4 3 3 2 2 2 2 2 2 2 3 3 3 4 4 4 4
6 5 4 5 4 2 3 3 3 3 4 5 4 5 5 4 6 7 7 10 8 12 4 4 4 4 4 4 3 3 2 2 1 2 3 3 3 3 3 4 4 4 5 5
4 8 4 3 2 2 3 4 4 4 5 5 5 4 5 7 8 9 11 8 6 6 5 4 4 5 4 3 2 2 2 2 3 3 2 3 3 3 4 4 5 5 5 5
Wind_Direction
244 240 224 226 228 209 202 234 237 272 278 284 292 301 307 336 336 309 301 305 264 278 252 274 347 22 19 32 64 83 96 126 119 120 119 113 116 117 115 108 105 104 110 106
283 261 217 242 241 231 234 247 260 267 274 275 280 289 316 336 326 316 313 304 288 282 110 102 97 80 46 42 37 78 106 111 110 106 106 101 102 99 95 96 94 92 91 96
270 322 310 280 230 204 199 212 205 243 256 291 304 313 340 339 329 328 311 314 308 45 79 70 73 80 66 63 57 89 92 95 96 100 97 97 94 88 89 92 98 98 105 109
281 341 269 241 219 188 202 237 222 253 270 284 285 283 65 17 332 341 4 29 44 64 77 75 77 75 78 71 72 73 84 86 103 101 100 97 97 97 97 89 93 93 84 99
258 266 285 274 190 177 181 275 220 222 272 293 299 144 184 19 0 0 23 44 65 72 80 83 88 101 97 89 91 88 94 102 107 109 106 106 103 103 105 110 100 114 167 162
208 263 252 251 182 128 107 285 206 231 258 285 330 323 314 9 12 27 45 67 71 72 82 95 104 101 101 110 100 81 85 94 96 100 103 104 114 110 97 123 148 155 123 115
211 245 283 253 249 139 66 255 232 235 248 250 247 232 111 100 47 53 47 68 71 63 58 60 76 89 84 78 74 85 86 86 84 90 95 98 108 128 149 123 105 100 94 75
177 211 265 168 108 196 233 280 252 256 198 167 147 140 106 101 107 86 75 72 70 78 57 51 62 93 92 82 83 89 91 90 87 92 104 109 99 87 96 98 98 98 101 79
189 213 238 215 244 248 265 255 276 263 173 154 150 163 147 120 110 110 98 80 76 83 78 70 72 82 97 100 110 110 99 90 86 84 82 79 93 95 80 84 93 87 92 113
231 263 252 257 246 296 308 272 294 272 157 153 157 161 151 127 124 105 94 99 95 87 90 86 83 93 93 100 104 104 98 88 82 88 79 69 71 77 85 92 111 133 115 86
257 298 302 238 239 253 262 288 323 75 149 153 148 151 145 137 135 121 107 99 100 96 93 93 90 83 88 94 109 97 89 84 77 82 92 91 80 112 107 111 133 135 138 118
246 259 252 259 222 223 223 225 212 167 124 137 152 156 139 129 117 126 123 120 108 107 109 106 100 91 81 85 95 100 94 90 95 94 92 98 110 78 81 94 83 92 165 196
266 288 252 270 248 204 190 180 173 169 160 151 134 136 130 132 126 136 122 117 123 118 111 107 101 95 91 95 100 102 114 124 121 118 112 108 78 79 85 4 49 43 21 4
284 260 266 202 234 187 157 150 135 107 111 129 121 121 125 129 132 133 135 133 125 121 108 104 104 98 106 106 102 106 108 109 95 98 103 97 93 91 90 68 24 341 356 3
354 311 260 88 108 134 124 143 135 135 130 119 117 131 135 139 143 139 140 129 117 108 99 101 104 98 102 103 102 105 103 103 102 94 95 103 97 94 90 76 38 344 337 344
312 299 270 180 183 176 156 170 153 161 155 139 134 133 131 133 136 133 134 143 140 143 131 120 111 113 105 104 109 107 114 129 125 119 114 108 95 96 73 43 8 326 324 312
306 303 257 271 214 199 200 185 171 166 154 155 143 137 135 130 122 124 125 112 111 119 124 127 132 124 117 118 119 119 117 134 137 111 107 103 107 92 100 283 295 306 300 303
269 262 258 248 244 210 196 184 163 164 164 154 145 156 150 155 158 146 134 119 106 99 115 126 127 126 124 131 131 137 135 129 116 107 100 84 88 66 5 318 313 314 309 309
324 314 315 240 229 209 181 174 168 160 151 155 157 160 155 133 140 137 132 130 133 139 179 148 147 131 134 153 141 134 126 118 105 103 83 62 34 8 332 312 312 317 318 311
343 342 338 340 155 164 155 147 144 144 153 152 149 145 140 142 142 143 142 147 159 167 153 153 135 141 148 144 130 118 113 114 111 95 73 82 346 323 313 327 334 324 320 301
342 335 343 31 46 59 96 134 142 151 153 158 164 162 155 145 145 144 142 154 185 156 150 155 151 151 142 130 119 119 118 108 99 93 40 341 320 317 319 324 325 314 312 301
339 341 348 4 72 96 109 112 111 125 145 159 137 135 139 142 140 131 126 167 159 159 145 148 151 160 156 136 131 126 121 115 115 125 123 305 306 312 312 318 313 294 279 282
333 332 333 341 306 195 154 146 153 160 162 161 155 155 164 160 162 160 166 170 157 161 143 148 170 162 148 133 129 127 134 144 168 233 280 285 295 305 303 282 267 268 282 285
332 339 332 336 59 142 169 164 149 159 156 155 158 162 153 150 115 113 138 158 157 153 156 166 163 155 141 133 133 147 167 184 217 240 272 309 301 301 276 269 283 277 276 291
330 314 328 347 6 236 129 120 114 131 141 140 141 144 144 157 152 158 148 153 161 150 152 163 161 150 140 145 157 171 195 226 247 215 224 246 266 274 271 268 267 271 271 268
329 323 317 312 283 236 184 162 156 156 149 148 143 146 138 122 140 145 147 148 149 159 145 138 128 146 155 162 177 189 204 249 290 284 268 260 262 269 273 278 273 276 274 272
321 336 328 326 318 259 198 176 161 178 176 170 157 156 154 141 153 148 147 146 144 142 139 149 157 159 161 176 189 211 229 243 269 250 241 259 264 261 270 272 273 273 272 270